Location: Staunton
(38.1490°N, 79.0720°W)
Time: 14:24:05
(UTC-04:00)

ISS - Pass Details

Date: 27 May 2017
Orbit: 402 x 408 km, 51.6° (Epoch: 29 May)

Event Time Altitude Azimuth Distance (km) Brightness Sun altitude
Rises 04:22:20 0° 302° (WNW) 2,323 -0.1 -15.8°
Enters shadow 04:23:09 - 300° (WNW) 1,996 -0.5 -15.7°
Exits shadow 04:27:38 35° 221° (SW) 666 -3.3 -15.1°
Drops below altitude 10° 04:30:33 10° 158° (SSE) 1,447 -1.2 -14.7°
Sets 04:32:42 0° 149° (SSE) 2,300 -0.1 -14.3°
